TimeCDT,TemperatureF,Dew PointF,Humidity,Sea Level PressureIn,VisibilityMPH,Wind Direction,Wind SpeedMPH,Gust SpeedMPH,PrecipitationIn,Events,Conditions,WindDirDegrees,DateUTC
12:12 AM,53.6,51.8,94,29.92,2.0,Calm,Calm,-,N/A,,Partly Cloudy,0,2013-05-07 05:12:00
12:15 AM,53.6,51.8,94,29.92,1.0,Calm,Calm,-,N/A,,Mist,0,2013-05-07 05:15:00
12:35 AM,51.8,51.8,100,29.93,0.8,Calm,Calm,-,N/A,,Mist,0,2013-05-07 05:35:00
12:38 AM,51.8,51.8,100,29.92,1.2,WNW,3.5,-,N/A,,Partly Cloudy,290,2013-05-07 05:38:00
12:52 AM,52.0,52.0,100,29.92,1.8,Calm,Calm,-,N/A,,Partly Cloudy,0,2013-05-07 05:52:00
1:52 AM,52.0,52.0,100,29.91,0.2,Calm,Calm,-,N/A,Fog,Fog,0,2013-05-07 06:52:00
3:52 AM,51.1,51.1,100,29.92,0.2,Calm,Calm,-,N/A,Fog,Fog,0,2013-05-07 08:52:00
4:52 AM,51.1,50.0,96,29.94,0.2,Calm,Calm,-,N/A,Fog,Fog,0,2013-05-07 09:52:00
5:52 AM,52.0,52.0,100,29.94,0.2,Calm,Calm,-,N/A,Fog,Fog,0,2013-05-07 10:52:00
6:52 AM,52.0,52.0,100,29.96,1.8,Calm,Calm,-,N/A,,Overcast,0,2013-05-07 11:52:00
6:55 AM,51.8,51.8,100,29.96,3.0,SW,3.5,-,N/A,,Overcast,220,2013-05-07 11:55:00
7:52 AM,54.0,52.0,93,29.99,8.0,Calm,Calm,-,N/A,,Overcast,0,2013-05-07 12:52:00
8:12 AM,55.4,53.6,94,30.00,7.0,West,8.1,-,N/A,,Overcast,280,2013-05-07 13:12:00
8:36 AM,53.6,53.6,100,30.01,9.0,WNW,4.6,-,N/A,,Overcast,290,2013-05-07 13:36:00
8:52 AM,55.0,53.1,93,30.01,10.0,West,3.5,-,N/A,,Overcast,260,2013-05-07 13:52:00
8:59 AM,55.4,53.6,94,30.01,10.0,West,3.5,-,N/A,,Overcast,270,2013-05-07 13:59:00
9:28 AM,57.2,53.6,88,30.01,10.0,NNW,4.6,-,N/A,,Overcast,340,2013-05-07 14:28:00
9:52 AM,59.0,54.0,83,30.01,9.0,NNW,4.6,-,N/A,,Overcast,340,2013-05-07 14:52:00
10:03 AM,60.8,53.6,77,30.01,9.0,NNW,3.5,-,N/A,,Overcast,330,2013-05-07 15:03:00
10:41 AM,62.6,55.4,77,30.00,10.0,Variable,4.6,-,N/A,,Mostly Cloudy,0,2013-05-07 15:41:00
10:52 AM,63.0,55.0,75,30.00,10.0,NW,6.9,-,N/A,,Mostly Cloudy,320,2013-05-07 15:52:00
11:45 AM,64.4,55.4,73,30.00,10.0,NNE,4.6,-,N/A,,Overcast,20,2013-05-07 16:45:00
11:52 AM,64.9,55.0,70,30.00,10.0,NNW,6.9,-,N/A,,Overcast,340,2013-05-07 16:52:00
12:52 PM,66.9,55.9,68,29.99,10.0,North,6.9,-,N/A,,Overcast,350,2013-05-07 17:52:00
1:52 PM,69.1,55.9,63,29.98,10.0,East,6.9,-,0.01,,Mostly Cloudy,80,2013-05-07 18:52:00
2:52 PM,70.0,54.0,57,29.97,10.0,ENE,4.6,-,N/A,,Scattered Clouds,60,2013-05-07 19:52:00
3:52 PM,72.0,55.0,55,29.96,10.0,Calm,Calm,-,N/A,,Overcast,0,2013-05-07 20:52:00
4:52 PM,70.0,54.0,57,29.96,10.0,Calm,Calm,-,N/A,,Mostly Cloudy,0,2013-05-07 21:52:00
5:52 PM,69.1,55.0,61,29.96,10.0,Calm,Calm,-,N/A,,Overcast,0,2013-05-07 22:52:00
6:52 PM,64.9,57.9,78,29.96,10.0,WSW,4.6,-,0.00,,Scattered Clouds,240,2013-05-07 23:52:00
7:52 PM,64.0,59.0,84,29.98,9.0,Calm,Calm,-,0.00,Rain,Light Rain,0,2013-05-08 00:52:00
8:52 PM,62.1,59.0,90,29.99,10.0,Calm,Calm,-,0.00,,Overcast,0,2013-05-08 01:52:00
9:52 PM,62.1,60.1,93,29.99,7.0,WSW,3.5,-,N/A,,Overcast,250,2013-05-08 02:52:00
10:48 PM,60.8,57.2,88,30.00,1.8,Calm,Calm,-,N/A,,Clear,0,2013-05-08 03:48:00
10:52 PM,59.0,57.9,96,29.99,1.5,Calm,Calm,-,N/A,,Clear,0,2013-05-08 03:52:00
11:03 PM,59.0,57.2,94,30.00,2.0,Calm,Calm,-,N/A,,Clear,0,2013-05-08 04:03:00
11:18 PM,60.8,59.0,94,29.99,5.0,Calm,Calm,-,N/A,,Partly Cloudy,0,2013-05-08 04:18:00
11:52 PM,59.0,57.9,96,29.99,4.0,WSW,3.5,-,N/A,,Clear,250,2013-05-08 04:52:00